NOAA 16 DEB, 41214

Orbit data source: Space-Track

NOAA 16 DEB, 41214 is space debris in SSO originally from a launch on Thu, 21 Sep 2000 UTC launched from the Air Force Western Test Range (AFWTR). Debris objects in space refer to the collection of defunct objects orbiting the Earth. Examples of debris include non-operational satellites, rocket bodies, and fragments generated from explosions, collisions, or faulty payload assembly.

Loading next visibility...
Identifier
41214, 2000-055DT
Orbit
SSO
Country
Flag of USUS
Related business
Manufacturer
Unknown
Mission
Spacecraft
Bus & Motor
Unknown
Mass
Unknown
Launch date (UTC)
2000-09-21 (25 years ago)
Launch vehicle
Unknown
Launch site
Air Force Western Test Range (AFWTR)
Object type
Payload
Rocket body
Debris
Shape & HBR
Unknown shape, 0.1 m
Radar Cross Section
Small (<0.1 m²)

Expand to show TLE details & history
Last TLE update: 11 hours ago

TLE from 11 hours ago
0 NOAA 16 DEB
1 41214U 00055DT  25293.30511908  .00014255  00000-0  42888-2 0  9999
2 41214  98.7856  52.1648 0026359  85.6218 274.7981 14.42495933512503
Epoch: 2025-10-20T07:19Z
TLE epoch observation values (Epoch: 2025-10-20T07:19:22.288Z)
Latitude
-0.00008°
Longitude
-86.68739°
Altitude
751.684 km
Speed
7.48 km/s
True Right ascension
03h 28m 39s
True Declination
0° 00' 00"
Sunlit
Object was in full shadow at epoch
Visualization orbit readout
Latitude
Unknown
Longitude
Unknown
Altitude
Unknown
Speed
Unknown
Apparent Right ascension
Unknown
Apparent Declination
Unknown
Sunlit
N/A
Visualization observer readout
Local Sidereal Time
13:03:49
Azimuth
Unknown
Elevation
Unknown
Doppler factor
Unknown
Orbital elements
Apogee altitude
766.178 km
Perigee altitude
728.614 km
Semi-major axis
7,125.533 km
Eccentricity
0.00264
Inclination
98.7856°
RAAN
52.1648°
Arg. of periapsis
85.6218°
True anomaly
274.49703°
Mean anomaly
274.7981°
Eccentric anomaly
274.64757°
Mean motion
3.60842 °/min
Orbital period
99.77 mins
BSTAR
0.0042888
Loading maneuver chart data...
Computing Atmospheric mass density...
Loading historical data...
Loading historical data...
Loading historical data...
Loading historical data...
Loading historical data...
Loading historical data...
Loading historical data...

Documentation

Showing up to 5 results
|